TimeCST,TemperatureF,Dew PointF,Humidity,Sea Level PressureIn,VisibilityMPH,Wind Direction,Wind SpeedMPH,Gust SpeedMPH,PrecipitationIn,Events,Conditions,WindDirDegrees,DateUTC
12:09 AM,30.2,30.2,100,29.86,5.0,SSE,20.7,24.2,N/A,,Overcast,150,2013-02-10 06:09:00
12:30 AM,30.2,30.2,100,29.86,5.0,SE,17.3,-,N/A,,Overcast,140,2013-02-10 06:30:00
12:49 AM,30.2,30.2,100,29.85,5.0,SSE,15.0,26.5,N/A,,Overcast,150,2013-02-10 06:49:00
1:10 AM,32.0,30.2,93,29.84,5.0,SSE,17.3,21.9,N/A,,Overcast,150,2013-02-10 07:10:00
1:30 AM,32.0,30.2,93,29.82,5.0,SE,16.1,19.6,N/A,,Overcast,140,2013-02-10 07:30:00
1:49 AM,30.2,30.2,100,29.83,2.5,SSE,12.7,-,N/A,Snow,Light Snow,150,2013-02-10 07:49:00
2:10 AM,30.2,30.2,100,29.81,4.0,SE,13.8,-,0.01,Snow,Light Snow,130,2013-02-10 08:10:00
2:30 AM,32.0,30.2,93,29.79,4.0,SE,12.7,17.3,0.01,Snow,Light Snow,130,2013-02-10 08:30:00
2:49 AM,30.2,30.2,100,29.78,4.0,SE,11.5,17.3,N/A,,Overcast,130,2013-02-10 08:49:00
3:10 AM,30.2,30.2,100,29.77,4.0,SE,12.7,-,N/A,,Overcast,130,2013-02-10 09:10:00
3:30 AM,32.0,30.2,93,29.75,4.0,ESE,12.7,-,N/A,,Overcast,120,2013-02-10 09:30:00
3:49 AM,32.0,32.0,100,29.74,3.0,ESE,13.8,-,N/A,,Overcast,120,2013-02-10 09:49:00
4:10 AM,32.0,32.0,100,29.72,3.0,ESE,16.1,20.7,N/A,,Overcast,120,2013-02-10 10:10:00
4:30 AM,32.0,32.0,100,29.70,3.0,SE,13.8,-,N/A,,Overcast,130,2013-02-10 10:30:00
4:49 AM,32.0,32.0,100,29.65,3.0,ESE,18.4,23.0,N/A,,Overcast,110,2013-02-10 10:49:00
5:10 AM,32.0,32.0,100,29.67,3.0,SE,15.0,20.7,N/A,,Overcast,130,2013-02-10 11:10:00
5:30 AM,32.0,32.0,100,29.64,3.0,ESE,15.0,25.3,N/A,,Overcast,120,2013-02-10 11:30:00
5:49 AM,33.8,32.0,93,29.64,2.5,SE,16.1,23.0,N/A,,Overcast,130,2013-02-10 11:49:00
6:10 AM,33.8,32.0,93,29.62,2.0,SE,17.3,24.2,N/A,,Overcast,130,2013-02-10 12:10:00
6:30 AM,33.8,33.8,100,29.58,1.2,ESE,18.4,-,N/A,Thunderstorm,Overcast,120,2013-02-10 12:30:00
6:49 AM,33.8,33.8,100,29.56,0.8,ESE,19.6,26.5,N/A,,Overcast,110,2013-02-10 12:49:00
7:10 AM,33.8,33.8,100,29.57,1.2,ESE,19.6,29.9,N/A,,Overcast,120,2013-02-10 13:10:00
7:30 AM,33.8,33.8,100,29.54,1.0,ESE,19.6,29.9,N/A,,Overcast,120,2013-02-10 13:30:00
7:49 AM,33.8,33.8,100,29.54,0.8,ESE,16.1,25.3,N/A,,Overcast,120,2013-02-10 13:49:00
8:10 AM,33.8,33.8,100,29.53,1.0,SE,18.4,26.5,N/A,,Overcast,130,2013-02-10 14:10:00
8:30 AM,33.8,33.8,100,29.52,1.2,SE,18.4,21.9,0.05,,Overcast,130,2013-02-10 14:30:00
8:49 AM,33.8,33.8,100,29.50,3.0,ESE,16.1,23.0,N/A,,Overcast,120,2013-02-10 14:49:00
9:10 AM,-9999,-9999,N/A,29.47,3.0,ESE,17.3,21.9,N/A,,Overcast,120,2013-02-10 15:10:00
9:30 AM,-9999,-9999,N/A,29.45,1.2,ESE,11.5,20.7,0.02,,Overcast,120,2013-02-10 15:30:00
9:49 AM,33.8,33.8,100,29.44,1.0,SE,15.0,19.6,0.02,,Overcast,130,2013-02-10 15:49:00
10:10 AM,35.6,35.6,100,29.44,1.2,SE,11.5,17.3,0.08,,Overcast,140,2013-02-10 16:10:00
10:30 AM,35.6,35.6,100,29.43,2.0,SE,12.7,18.4,0.10,Snow,Light Snow,140,2013-02-10 16:30:00
10:49 AM,35.6,35.6,100,29.42,2.0,SE,11.5,-,N/A,Snow,Light Snow,140,2013-02-10 16:49:00
11:10 AM,35.6,35.6,100,29.41,1.8,SE,13.8,17.3,0.01,Snow,Light Snow,140,2013-02-10 17:10:00
11:30 AM,35.6,35.6,100,29.39,2.5,SE,13.8,-,0.02,Snow,Light Snow,140,2013-02-10 17:30:00
11:49 AM,35.6,35.6,100,29.37,5.0,SE,15.0,-,N/A,Snow,Light Snow,130,2013-02-10 17:49:00
12:10 PM,35.6,35.6,100,29.36,7.0,SE,17.3,20.7,N/A,,Overcast,140,2013-02-10 18:10:00
12:30 PM,35.6,35.6,100,29.35,10.0,SE,13.8,-,N/A,,Overcast,140,2013-02-10 18:30:00
12:49 PM,35.6,35.6,100,29.34,10.0,SE,12.7,-,N/A,,Overcast,140,2013-02-10 18:49:00
1:10 PM,35.6,35.6,100,29.32,7.0,SE,12.7,-,N/A,,Overcast,140,2013-02-10 19:10:00
1:29 PM,35.6,35.6,100,29.31,7.0,SE,10.4,-,N/A,,Overcast,140,2013-02-10 19:29:00
1:50 PM,35.6,35.6,100,29.29,2.5,SE,12.7,18.4,N/A,,Overcast,130,2013-02-10 19:50:00
2:09 PM,35.6,35.6,100,29.28,1.0,SE,12.7,-,N/A,,Overcast,140,2013-02-10 20:09:00
2:30 PM,35.6,35.6,100,29.27,0.2,SE,11.5,-,N/A,Fog,Fog,140,2013-02-10 20:30:00
2:50 PM,37.4,37.4,100,29.26,0.2,SE,10.4,-,N/A,Fog,Fog,140,2013-02-10 20:50:00
3:09 PM,37.4,37.4,100,29.25,0.2,SE,8.1,-,N/A,,Drizzle,140,2013-02-10 21:09:00
3:29 PM,37.4,37.4,100,29.25,0.2,SE,5.8,-,N/A,,Drizzle,130,2013-02-10 21:29:00
3:50 PM,37.4,37.4,100,29.24,0.2,SE,6.9,-,N/A,Rain,Light Rain,130,2013-02-10 21:50:00
4:10 PM,37.4,37.4,100,29.23,0.2,SE,6.9,-,N/A,Rain,Light Rain,130,2013-02-10 22:10:00
4:29 PM,37.4,37.4,100,29.24,0.5,SSE,8.1,-,0.05,Rain,Heavy Rain,150,2013-02-10 22:29:00
4:50 PM,37.4,37.4,100,29.24,2.5,South,8.1,16.1,0.01,Rain,Rain,170,2013-02-10 22:50:00
5:10 PM,39.2,39.2,100,29.23,4.0,South,10.4,-,0.01,Rain,Rain,180,2013-02-10 23:10:00
5:30 PM,39.2,39.2,100,29.23,7.0,SSW,9.2,-,0.01,,Drizzle,200,2013-02-10 23:30:00
5:49 PM,37.4,37.4,100,29.23,7.0,SSW,9.2,-,N/A,,Drizzle,210,2013-02-10 23:49:00
6:10 PM,37.4,37.4,100,29.24,7.0,SW,11.5,18.4,0.01,Rain,Light Rain,230,2013-02-11 00:10:00
6:30 PM,35.6,35.6,100,29.24,5.0,SW,9.2,-,0.02,Rain,Light Rain,220,2013-02-11 00:30:00
6:49 PM,35.6,35.6,100,29.24,7.0,SSW,6.9,-,N/A,Rain,Light Rain,200,2013-02-11 00:49:00
7:10 PM,35.6,35.6,100,29.24,7.0,SSW,5.8,-,N/A,,Light Drizzle,200,2013-02-11 01:10:00
7:30 PM,35.6,35.6,100,29.24,5.0,SSW,5.8,-,N/A,Snow,Light Snow,200,2013-02-11 01:30:00
7:49 PM,35.6,35.6,100,29.23,2.5,SSW,6.9,-,N/A,Snow,Light Snow,200,2013-02-11 01:49:00
8:10 PM,35.6,35.6,100,29.23,2.5,SSW,8.1,-,0.01,,Overcast,200,2013-02-11 02:10:00
8:30 PM,35.6,35.6,100,29.23,3.0,SSW,8.1,-,0.01,,Overcast,210,2013-02-11 02:30:00
8:49 PM,35.6,35.6,100,29.23,3.0,SW,8.1,-,N/A,Snow,Light Snow,220,2013-02-11 02:49:00
9:10 PM,35.6,35.6,100,29.24,2.5,SW,5.8,-,N/A,Snow,Light Snow,230,2013-02-11 03:10:00
9:29 PM,35.6,35.6,100,29.25,2.5,WSW,6.9,-,0.01,Snow,Light Snow,250,2013-02-11 03:29:00
9:49 PM,35.6,35.6,100,29.25,3.0,West,9.2,-,N/A,Snow,Light Snow,260,2013-02-11 03:49:00
10:10 PM,35.6,35.6,100,29.26,4.0,West,11.5,-,N/A,Snow,Light Snow,270,2013-02-11 04:10:00
10:29 PM,35.6,35.6,100,29.27,0.5,West,13.8,18.4,N/A,Fog,Fog,280,2013-02-11 04:29:00
10:50 PM,33.8,33.8,100,29.29,1.0,WNW,17.3,25.3,N/A,,Overcast,290,2013-02-11 04:50:00
11:10 PM,33.8,33.8,100,29.30,2.0,West,13.8,26.5,N/A,Snow,Light Snow,280,2013-02-11 05:10:00
11:29 PM,33.8,33.8,100,29.31,-9999.0,WNW,16.1,25.3,0.01,,Overcast,290,2013-02-11 05:29:00
11:50 PM,32.0,32.0,100,29.33,-9999.0,WNW,13.8,26.5,N/A,,Overcast,290,2013-02-11 05:50:00